When you browse on this site, cookies collect data to enhance your experience and personalize the content and advertising you see.
Visit our Privacy Policy to learn more. By continuing to use the site, you agree to this use of cookies and data.
  • In France
  • List of Countries
  • For 7 days
  • Water Temperature
  • Satellite Maps
  • Weather Map
  • Weather Widgets
  • user-avatar
    Login

    Hourly Weather Turpan

    Today, 19 July, Friday

    Time Temperature Precipitation Wind Pressure Humidity
    00:00 +36°C° 0 mm 1 mps 753 mmHg 26%
    01:00 +36°C° 0 mm 1 mps 753 mmHg 26%
    02:00 +36°C° 0 mm 1 mps 753 mmHg 27%
    03:00 +35°C° 0 mm 1 mps 753 mmHg 28%
    04:00 +35°C° 0 mm 1 mps 753 mmHg 27%
    05:00 +34°C° 0 mm 0 mps 753 mmHg 26%
    06:00 +34°C° 0 mm 0 mps 754 mmHg 25%
    07:00 +35°C° 0 mm 0 mps 753 mmHg 24%
    08:00 +39°C° 0 mm 1 mps 753 mmHg 22%
    09:00 +39°C° 0 mm 1 mps 753 mmHg 21%
    10:00 +41°C° 0 mm 1 mps 753 mmHg 19%
    11:00 +42°C° 0 mm 2 mps 752 mmHg 17%
    12:00 +43°C° 0 mm 2 mps 752 mmHg 15%
    13:00 +43°C° 0 mm 2 mps 752 mmHg 14%
    14:00 +45°C° 0 mm 2 mps 751 mmHg 13%
    15:00 +46°C° 0 mm 2 mps 751 mmHg 12%
    16:00 +45°C° 0 mm 4 mps 751 mmHg 13%
    17:00 +45°C° 0 mm 7 mps 751 mmHg 14%
    18:00 +44°C° 0 mm 9 mps 751 mmHg 16%
    19:00 +43°C° 0 mm 8 mps 751 mmHg 16%
    20:00 +42°C° 0 mm 6 mps 752 mmHg 17%
    21:00 +41°C° 0 mm 5 mps 752 mmHg 17%
    22:00 +41°C° 0 mm 4 mps 752 mmHg 18%
    23:00 +39°C° 0 mm 3 mps 752 mmHg 18%

    Tomorrow, 20 July, Saturday

    Time Temperature Precipitation Wind Pressure Humidity
    00:00 +39°C° 0 mm 2 mps 752 mmHg 19%
    01:00 +38°C° 0 mm 2 mps 752 mmHg 19%
    02:00 +38°C° 0 mm 2 mps 752 mmHg 19%
    03:00 +38°C° 0 mm 2 mps 751 mmHg 20%
    04:00 +37°C° 0 mm 1 mps 751 mmHg 20%
    05:00 +37°C° 0 mm 1 mps 751 mmHg 20%
    06:00 +35°C° 0 mm 0 mps 751 mmHg 21%
    07:00 +36°C° 0 mm 0 mps 751 mmHg 19%
    08:00 +40°C° 0 mm 1 mps 751 mmHg 17%
    09:00 +41°C° 0 mm 1 mps 751 mmHg 15%
    10:00 +42°C° 0 mm 2 mps 751 mmHg 14%
    11:00 +42°C° 0 mm 2 mps 751 mmHg 13%
    12:00 +43°C° 0 mm 2 mps 751 mmHg 12%
    13:00 +45°C° 0 mm 3 mps 751 mmHg 12%
    14:00 +45°C° 0 mm 3 mps 750 mmHg 11%
    15:00 +45°C° 0 mm 3 mps 750 mmHg 11%
    16:00 +45°C° 0 mm 3 mps 750 mmHg 12%
    17:00 +45°C° 0 mm 3 mps 751 mmHg 12%
    18:00 +45°C° 0 mm 3 mps 751 mmHg 12%
    19:00 +44°C° 0.1 mm 4 mps 751 mmHg 13%
    20:00 +43°C° 0.1 mm 5 mps 752 mmHg 15%
    21:00 +41°C° 0.1 mm 6 mps 752 mmHg 17%
    22:00 +41°C° 0 mm 6 mps 752 mmHg 17%
    23:00 +41°C° 0 mm 6 mps 752 mmHg 18%

    Day after tomorrow, 21 July, Sunday

    Time Temperature Precipitation Wind Pressure Humidity
    00:00 +40°C° 0 mm 5 mps 752 mmHg 18%
    01:00 +40°C° 0 mm 4 mps 751 mmHg 19%
    02:00 +38°C° 0 mm 3 mps 751 mmHg 19%
    03:00 +38°C° 0 mm 2 mps 751 mmHg 20%
    04:00 +38°C° 0 mm 2 mps 751 mmHg 20%
    05:00 +38°C° 0 mm 2 mps 751 mmHg 20%
    06:00 +38°C° 0 mm 2 mps 751 mmHg 20%
    07:00 +39°C° 0 mm 2 mps 751 mmHg 19%
    08:00 +40°C° 0 mm 3 mps 751 mmHg 17%
    09:00 +42°C° 0 mm 3 mps 751 mmHg 16%
    10:00 +43°C° 0 mm 3 mps 751 mmHg 15%
    11:00 +42°C° 0 mm 2 mps 751 mmHg 14%
    12:00 +43°C° 0 mm 1 mps 750 mmHg 13%
    13:00 +45°C° 0 mm 2 mps 750 mmHg 12%
    14:00 +45°C° 0 mm 3 mps 750 mmHg 11%
    15:00 +47°C° 0 mm 4 mps 750 mmHg 11%
    16:00 +45°C° 0.1 mm 6 mps 750 mmHg 13%
    17:00 +44°C° 0.1 mm 8 mps 751 mmHg 15%
    18:00 +42°C° 0.1 mm 11 mps 752 mmHg 17%
    19:00 +42°C° 0.1 mm 9 mps 752 mmHg 18%
    20:00 +41°C° 0.1 mm 7 mps 753 mmHg 18%
    21:00 +40°C° 0.1 mm 5 mps 753 mmHg 19%
    22:00 +38°C° 0 mm 4 mps 753 mmHg 20%
    23:00 +38°C° 0 mm 3 mps 753 mmHg 21%

    22 July, Monday

    Time Temperature Precipitation Wind Pressure Humidity
    00:00 +37°C° 0 mm 3 mps 753 mmHg 22%
    01:00 +37°C° 0 mm 2 mps 753 mmHg 22%
    02:00 +36°C° 0 mm 2 mps 752 mmHg 23%
    03:00 +36°C° 0 mm 2 mps 752 mmHg 24%
    04:00 +36°C° 0 mm 2 mps 752 mmHg 24%
    05:00 +35°C° 0 mm 1 mps 753 mmHg 23%
    06:00 +35°C° 0 mm 1 mps 753 mmHg 23%
    07:00 +36°C° 0 mm 1 mps 753 mmHg 21%
    08:00 +37°C° 0 mm 1 mps 752 mmHg 20%
    09:00 +39°C° 0 mm 1 mps 752 mmHg 18%
    10:00 +40°C° 0 mm 1 mps 752 mmHg 17%
    11:00 +41°C° 0 mm 2 mps 751 mmHg 16%
    12:00 +42°C° 0 mm 2 mps 751 mmHg 15%
    13:00 +42°C° 0 mm 2 mps 751 mmHg 14%
    14:00 +43°C° 0 mm 2 mps 750 mmHg 13%
    15:00 +43°C° 0 mm 2 mps 750 mmHg 13%
    16:00 +43°C° 0 mm 2 mps 750 mmHg 13%
    17:00 +43°C° 0 mm 2 mps 750 mmHg 13%
    18:00 +44°C° 0 mm 3 mps 751 mmHg 13%
    19:00 +43°C° 0 mm 3 mps 751 mmHg 14%
    20:00 +42°C° 0 mm 4 mps 751 mmHg 15%
    21:00 +42°C° 0 mm 5 mps 752 mmHg 16%
    22:00 +41°C° 0 mm 4 mps 752 mmHg 17%
    23:00 +39°C° 0 mm 3 mps 751 mmHg 18%

    23 July, Tuesday

    Time Temperature Precipitation Wind Pressure Humidity
    00:00 +39°C° 0 mm 3 mps 751 mmHg 20%
    01:00 +38°C° 0 mm 3 mps 751 mmHg 20%
    02:00 +37°C° 0 mm 3 mps 752 mmHg 21%
    03:00 +37°C° 0 mm 3 mps 752 mmHg 22%
    04:00 +37°C° 0 mm 2 mps 752 mmHg 22%
    05:00 +37°C° 0 mm 2 mps 752 mmHg 22%
    06:00 +37°C° 0 mm 2 mps 752 mmHg 22%
    07:00 +37°C° 0.1 mm 2 mps 752 mmHg 22%
    08:00 +38°C° 0.1 mm 2 mps 752 mmHg 21%
    09:00 +39°C° 0.1 mm 2 mps 752 mmHg 20%
    10:00 +40°C° 0 mm 2 mps 751 mmHg 19%
    11:00 +41°C° 0 mm 2 mps 751 mmHg 17%
    12:00 +42°C° 0 mm 2 mps 750 mmHg 16%
    13:00 +43°C° 0 mm 2 mps 750 mmHg 15%
    14:00 +44°C° 0 mm 3 mps 750 mmHg 13%
    15:00 +45°C° 0 mm 3 mps 749 mmHg 12%
    16:00 +45°C° 0 mm 4 mps 749 mmHg 12%
    17:00 +45°C° 0 mm 4 mps 749 mmHg 12%
    18:00 +45°C° 0 mm 4 mps 749 mmHg 13%
    19:00 +44°C° 0 mm 4 mps 749 mmHg 13%
    20:00 +43°C° 0 mm 4 mps 750 mmHg 14%
    21:00 +43°C° 0 mm 4 mps 750 mmHg 14%
    22:00 +42°C° 0 mm 4 mps 751 mmHg 15%
    23:00 +40°C° 0 mm 3 mps 751 mmHg 16%

    24 July, Wednesday

    Time Temperature Precipitation Wind Pressure Humidity
    00:00 +39°C° 0 mm 3 mps 751 mmHg 18%
    01:00 +38°C° 0 mm 3 mps 751 mmHg 19%
    02:00 +38°C° 0 mm 3 mps 751 mmHg 20%
    03:00 +37°C° 0 mm 3 mps 751 mmHg 20%
    04:00 +37°C° 0 mm 3 mps 751 mmHg 21%
    05:00 +37°C° 0 mm 2 mps 751 mmHg 21%
    06:00 +37°C° 0 mm 2 mps 752 mmHg 21%
    07:00 +38°C° 0 mm 2 mps 751 mmHg 20%
    08:00 +39°C° 0 mm 2 mps 751 mmHg 19%
    09:00 +40°C° 0 mm 2 mps 751 mmHg 18%
    10:00 +40°C° 0 mm 2 mps 751 mmHg 17%
    11:00 +41°C° 0 mm 2 mps 750 mmHg 16%
    12:00 +42°C° 0 mm 1 mps 750 mmHg 15%
    13:00 +42°C° 0 mm 2 mps 750 mmHg 15%
    14:00 +43°C° 0 mm 2 mps 750 mmHg 14%
    15:00 +43°C° 0 mm 2 mps 749 mmHg 13%
    16:00 +44°C° 0 mm 3 mps 749 mmHg 14%
    17:00 +45°C° 0 mm 5 mps 750 mmHg 14%
    18:00 +45°C° 0 mm 6 mps 750 mmHg 15%
    19:00 +43°C° 0.2 mm 5 mps 750 mmHg 16%
    20:00 +41°C° 0.2 mm 4 mps 751 mmHg 18%
    21:00 +39°C° 0.2 mm 3 mps 752 mmHg 20%
    22:00 +39°C° 0.2 mm 3 mps 752 mmHg 21%
    23:00 +38°C° 0.2 mm 3 mps 752 mmHg 22%
    Show more